Oak Harbor, WA

7:23 AM PST on December 10, 2016 (GMT -0800)
Whidbey Island Naval Air Station

Weather History for KNUW - February, 2013

Change the Weather History Date:

Friday, February 15, 2013

  Actual Average Record
Temperature  
Mean Temperature 44 °F -  
Max Temperature 48 °F 47 °F 55 °F (2002)
Min Temperature 39 °F 34 °F 25 °F (2005)
Degree Days  
Heating Degree Days 22    
Moisture  
Dew Point 40 °F    
Average Humidity 86    
Maximum Humidity 93    
Minimum Humidity 74    
Precipitation  
Precipitation 0.00 in - - ()
Sea Level Pressure  
Sea Level Pressure 30.40 in    
Wind  
Wind Speed 2 mph (NNW)    
Max Wind Speed 9 mph    
Max Gust Speed -    
Visibility 10 miles    
Events Fog    
Averages and records for this station are not official NWS values.
T = Trace of Precipitation, MM = Missing Value Source: NWS Daily Summary

Daily Weather History Graph

Daily Weather History Graph

Search for Another Location

Airport or City:

Trip Planner

Search our weather history database for the weather conditions in past years. The results will help you decide how hot, cold, wet, or windy it might be!

Date:

Astronomy

Feb. 15, 2013 Rise Set
Actual Time 7:17 AM PST 5:33 PM PST
Civil Twilight 6:44 AM PST 6:05 PM PST
Nautical Twilight 6:08 AM PST 6:41 PM PST
Astronomical Twilight 5:32 AM PST 7:18 PM PST
Moon 9:25 AM PST (2/15) No Moon Set
Length of Visible Light 11h 20m
Length of Day
10h 16m
Waxing Crescent, 31% of the Moon is Illuminated
Feb 15
Waxing Crescent
Feb 17
First Quarter
Feb 25
Full
Mar 4
Last Quarter
Mar 11
New

Hourly Weather History & Observations

Time (PST) Temp. Windchill Dew Point Humidity Pressure Visibility Wind Dir Wind Speed Gust Speed Precip Events Conditions
12:56 AM 44.1 °F - 41.0 °F 89% 30.58 in 10.0 mi Calm Calm - N/A   Overcast
1:56 AM 44.1 °F - 41.0 °F 89% 30.57 in 10.0 mi Calm Calm - N/A   Overcast
2:56 AM 44.1 °F - 41.0 °F 89% 30.55 in 10.0 mi Calm Calm - N/A   Mostly Cloudy
3:56 AM 43.0 °F - 39.9 °F 89% 30.54 in 10.0 mi Calm Calm - N/A   Mostly Cloudy
4:56 AM 43.0 °F - 39.9 °F 89% 30.53 in 8.0 mi Calm Calm - N/A   Overcast
5:56 AM 43.0 °F - 39.9 °F 89% 30.52 in 8.0 mi Calm Calm - N/A   Mostly Cloudy
6:34 AM 42.8 °F 41.1 °F 39.2 °F 87% 30.50 in 10.0 mi NE 3.5 mph - N/A   Overcast
6:56 AM 43.0 °F 40.3 °F 39.0 °F 86% 30.51 in 10.0 mi NE 4.6 mph - N/A   Mostly Cloudy
7:56 AM 41.0 °F 39.0 °F 39.0 °F 93% 30.50 in 8.0 mi East 3.5 mph - N/A   Mostly Cloudy
8:56 AM 44.1 °F 42.5 °F 41.0 °F 89% 30.50 in 8.0 mi NNE 3.5 mph - N/A   Mostly Cloudy
9:56 AM 46.9 °F - 43.0 °F 86% 30.48 in 10.0 mi NNE 4.6 mph - N/A   Overcast
10:20 AM 46.4 °F 45.2 °F 44.6 °F 93% 30.46 in 10.0 mi ENE 3.5 mph - N/A   Overcast
10:56 AM 48.0 °F - 45.0 °F 89% 30.46 in 10.0 mi WNW 3.5 mph - N/A   Overcast
11:56 AM 48.0 °F - 42.1 °F 80% 30.44 in 10.0 mi NW 5.8 mph - N/A   Scattered Clouds
12:56 PM 48.9 °F - 41.0 °F 74% 30.40 in 10.0 mi NNW 6.9 mph - N/A   Scattered Clouds
1:56 PM 48.9 °F - 41.0 °F 74% 30.37 in 10.0 mi NW 9.2 mph - N/A   Scattered Clouds
2:56 PM 48.9 °F - 41.0 °F 74% 30.35 in 10.0 mi NNW 6.9 mph - N/A   Scattered Clouds
3:56 PM 46.9 °F - 41.0 °F 80% 30.32 in 10.0 mi West 8.1 mph - N/A   Scattered Clouds
4:56 PM 46.0 °F 43.1 °F 41.0 °F 83% 30.30 in 10.0 mi NNW 5.8 mph - N/A   Mostly Cloudy
5:56 PM 44.1 °F 42.5 °F 39.9 °F 85% 30.27 in 10.0 mi West 3.5 mph - N/A   Mostly Cloudy
6:56 PM 43.0 °F 39.5 °F 39.9 °F 89% 30.26 in 10.0 mi NW 5.8 mph - N/A   Mostly Cloudy
7:56 PM 43.0 °F 41.3 °F 39.0 °F 86% 30.25 in 10.0 mi NW 3.5 mph - N/A   Mostly Cloudy
8:56 PM 42.1 °F - 39.0 °F 89% 30.24 in 10.0 mi Calm Calm - N/A   Overcast
9:56 PM 39.9 °F - 37.0 °F 89% 30.23 in 9.0 mi Calm Calm - N/A   Mostly Cloudy
10:56 PM 39.9 °F 37.8 °F 37.0 °F 89% 30.21 in 9.0 mi ESE 3.5 mph - N/A   Mostly Cloudy
11:56 PM 39.9 °F - 37.0 °F 89% 30.19 in 8.0 mi Calm Calm - N/A Fog Patches of Fog